Home > Weather > Pomona > Past weeks

Flag for U.S.A. Weather for the Past 2 Weeks in Pomona, California, U.S.A.

Now
89 °F

Passing clouds.


Feels Like: 85 °F
Forecast: 54 / 85 °F
Wind: 6 mph from Northwest

Location: Chino Airport

Current Time: Feb 10, 2016 at 5:16:15 PM

Latest Report: Feb 10, 2016 at 3:53 PM


Visibility: 10 mi

Pressure: 30.06 "Hg

Humidity: 9%

Dew point: 24 °F

Location of PomonaLocation

Historic Weather in Pomona — Graph

°F

Pomona Temperature Yesterday

Maximum temperature yesterday: 89 °F (at 1:53 PM)
Minimum temperature yesterday: 45 °F (at 4:53 AM)
Average temperature yesterday: 67 °F

High & Low Weather Summary for the Past Weeks

 TemperatureHumidityPressure
High90 °F (Feb 10, 2:53 PM)93% (Jan 30, 2:53 AM)30.37 "Hg (Jan 30, 2:53 AM)
Low32 °F (Feb 2, 5:53 AM)6% (Feb 7, 3:53 PM)29.59 "Hg (Jan 31, 1:53 PM)
Average58 °F47%30.14 "Hg
* Reported Jan 26 2:53 PM — Feb 10 2:53 PM, Pomona, Weather by CustomWeather, © 2016

Note: Actual official high and low records may vary slightly from our data, if they occured in-between our weather recording intervals... More about our weather records

Advertising

Pomona Weather History for the Previous 24 Hours

 ConditionsComfort  
Time TempWeatherWind HumidityBarometerVisibility
2:53 PM
Wed, Feb 10
90 °FScattered clouds.5 mph11%30.06 "Hg10 mi
1:53 PM89 °FPartly sunny.7 mph11%30.08 "Hg10 mi
12:53 PM85 °FPartly sunny.No wind12%30.11 "Hg10 mi
11:53 AM83 °FPartly sunny.No wind14%30.14 "Hg10 mi
10:53 AM78 °FPartly sunny.No wind21%30.18 "Hg10 mi
9:53 AM71 °FPartly sunny.No wind30%30.19 "Hg10 mi
8:53 AM64 °FPartly sunny.No wind38%30.18 "Hg10 mi
7:53 AM53 °FPartly sunny.No wind66%30.18 "Hg10 mi
6:53 AM47 °FPartly sunny.No wind66%30.16 "Hg10 mi
5:53 AM45 °FClear.No wind74%30.15 "Hg8 mi
4:53 AM46 °FClear.No wind68%30.14 "Hg9 mi
3:53 AM52 °FClear.6 mph53%30.13 "Hg10 mi
2:53 AM50 °FClear.No wind59%30.14 "Hg9 mi
1:53 AM52 °FClear.3 mph57%30.14 "Hg9 mi
12:53 AM54 °FClear.5 mph51%30.14 "Hg10 mi
11:53 PM
Tue, Feb 9
56 °FClear.No wind46%30.13 "Hg10 mi
10:53 PM54 °FClear.No wind53%30.13 "Hg9 mi
9:53 PM57 °FClear.5 mph51%30.13 "Hg8 mi
8:53 PM60 °FClear.6 mph47%30.12 "Hg7 mi
7:53 PM67 °FClear.No wind25%30.10 "Hg10 mi
6:53 PM70 °FClear.No wind23%30.10 "Hg9 mi
5:53 PM76 °FPassing clouds.5 mph22%30.10 "Hg10 mi
Weather by CustomWeather, © 2016

See weather overviewHow to use our weather pages